OpenBCM V1.13 (Linux)

Packet Radio Mailbox

DB0FHN

[JN59NK Nuernberg]

 Login: GUEST





  
LU9DCE > KEP      21.03.19 19:34l 258 Lines 12801 Bytes #999 (0) @ WW
BID : 20355_LU9DCE
Read: GUEST DK3UZ DF7EAV
Subj: TLE 21 03
Path: DB0FHN<DB0BLO<DB0ERF<DB0RES<IR2UBX<IZ3LSV<I3XTY<GB7COW<ZS0MEE<GB7YEW<
      LU9DCE
Sent: 190321/1801Z 20355@LU9DCE.TOR.BA.ARG.SOAM LinBPQ6.0.18

            __    _  _  ___  ____   ___  ____    ____  ____  ____
           (  )  / )( \/ _ \(    \ / __)(  __)  (  _ \(  _ \/ ___)
           / (_/\) \/ (\__  )) D (( (__  ) _)    ) _ ( ) _ (\___ \
           \____/\____/(___/(____/ \___)(____)  (____/(____/(____/
               ESTACION DE PACKET RADIO - BUENOS AIRES (GF05OM)
                   BOLETINES INFORMATIVOS PROGRAMADOS (BIP)
                  SOPORTE TECNICO - HELLOCODELINUX@GMAIL.COM

+----------------------------------------------------------------------------+
OSCAR 7
1  7530U 74089B   19079.91873749 -.00000053 +00000-0 -51600-4 0  9993
2  7530 101.7334 048.5393 0012194 158.8558 219.4503 12.53637219029032
OSCAR 11 (UoSAT 2)
1 14781U 84021B   19079.56195533  .00000061  00000-0  13617-4 0  9998
2 14781  97.6205 108.4980 0007021 252.4918 107.5529 14.83070566885407
OSCAR 19 (LUSAT)
1 20442U 90005G   19079.80143138 -.00000001  00000-0  15792-4 0  9990
2 20442  98.6404  21.9941 0012780  57.4340 302.8076 14.32919836523509
EYESAT A
1 22825U 93061C   19080.43211515 -.00000015  00000-0  12194-4 0  9996
2 22825  98.8975  67.0604 0007314 257.6035 102.4328 14.30053728329190
ITAMSAT
1 22826U 93061D   19079.89495684 -.00000015  00000-0  12002-4 0  9994
2 22826  98.8914  66.5144 0007903 247.2282 112.8065 14.30386748329318
RADIO ROSTO
1 23439U 94085A   19079.96059076 -.00000053 +00000-0 -30088-3 0  9997
2 23439 064.8140 261.2325 0148313 130.4311 319.7517 11.27568334997772
JAS 2
1 24278U 96046B   19079.70873939 -.00000010 +00000-0 +22610-4 0  9997
2 24278 098.5234 245.3863 0351330 113.3620 250.4885 13.53089890115384
TECHSAT 1B
1 25397U 98043D   19079.58949506 -.00000026 +00000-0 +79126-5 0  9991
2 25397 098.6809 020.8657 0000659 001.3466 358.7714 14.23661942074831
ISS (ZARYA)
1 25544U 98067A   19080.50558613  .00000411  00000-0  13997-4 0  9990
2 25544  51.6400  77.1200 0003922 125.1463  17.7790 15.52834002161631
PCSAT
1 26931U 01043C   19079.87030098 -.00000046 +00000-0 +14270-4 0  9999
2 26931 067.0501 235.4595 0005441 275.3367 084.7113 14.30535603912053
SAUDISAT 1C
1 27607U 02058C   19079.67661076 -.00000011  00000-0  19379-4 0  9998
2 27607  64.5556 324.8033 0082339 273.6716  85.4973 14.75528227873754
CUTE-1
1 27844U 03031E   19079.95076756 +.00000044 +00000-0 +39551-4 0  9998
2 27844 098.6869 089.4951 0008725 293.4685 066.5575 14.22165620815498
CUBESAT XI 4
1 27848U 03031J   19079.98778861  .00000024  00000-0  30890-4 0  9996
2 27848  98.6948  90.0110 0008728 305.8693  54.1673 14.21762399815391
MOZHAYETS 4
1 27939U 03042A   19080.34178412  .00000054  00000-0  18203-4 0  9994
2 27939  98.0235 217.9766 0012559 357.2129   2.9015 14.66761574827447
CUBESAT XI 5
1 28895U 05043F   19079.81598374  .00000119  00000-0  31739-4 0  9993
2 28895  97.9436 225.7030 0015431 275.5484  84.3959 14.63639838714337
CUTE-1.7+APD II
1 32785U 08021C   19079.79513326 +.00000186 +00000-0 +25681-4 0  9999
2 32785 097.5493 083.7557 0012615 194.4977 165.5880 14.88265245590243
DELFI C3
1 32789U 08021G   19079.57189420  .00001217  00000-0  85813-4 0  9992
2 32789  97.4757 131.9153 0013789  76.8297 283.4468 15.06727062593390
SEEDS
1 32791U 08021J   19079.76290419 +.00000373 +00000-0 +43252-4 0  9990
2 32791 097.5303 089.5936 0013599 170.8830 189.2639 14.90755689590630
YUBELEINY
1 32953U 08025A   19080.30730874  .00000020  00000-0  75656-4 0  9992
2 32953  82.5060 200.3345 0018213 326.9876  33.0073 12.43088198491204
PRISM (HITOMI)
1 33493U 09002B   19079.73691074  .00000229  00000-0  25675-4 0  9998
2 33493  98.1233 357.2860 0016309 117.5358 242.7522 14.96549650551699
KKS-1 (KISEKI)
1 33499U 09002H   19079.88437862 +.00000111 +00000-0 +24374-4 0  9998
2 33499 098.3549 275.6953 0010187 127.8427 232.3704 14.75415413545553
SWISSCUBE
1 35932U 09051B   19080.13810670  .00000109  00000-0  35690-4 0  9998
2 35932  98.5766 243.5385 0008784  82.9269 277.2927 14.56254428503744
BEESAT
1 35933U 09051C   19079.87185163  .00000087  00000-0  30598-4 0  9997
2 35933  98.5799 244.9774 0007042  95.1322 265.0679 14.56347323503814
ITUPSAT 1
1 35935U 09051E   19079.87787153  .00000062  00000-0  25432-4 0  9990
2 35935  98.5911 245.2272 0009352  92.0301 268.1967 14.55511369503577
XIWANG-1 (HOPE-1)
1 36122U 09072B   19080.12618715 -.00000019  00000-0  59807-4 0  9995
2 36122 100.0745  86.7189 0007378 186.4717 173.6327 13.16348961445094
TISAT 1
1 36799U 10035E   19079.89311287  .00000492  00000-0  55837-4 0  9995
2 36799  98.1414 229.1403 0012680  26.7315 333.4554 14.91030194471387
JUGNU
1 37839U 11058B   19080.45900839  .00000359  00000-0  49845-4 0  9992
2 37839  19.9599 155.8896 0019070  63.8631  37.3408 14.12645137384622
SRMSAT
1 37841U 11058D   19079.75142993  .00000299  00000-0  18868-4 0  9999
2 37841  19.9709 215.0971 0011787 289.0781 212.9472 14.10626807383976
M-CUBED/EXP-1 PRIME
1 37855U 11061F   19079.86785588 +.00000878 +00000-0 +52146-4 0  9993
2 37855 101.7270 289.3045 0174283 343.0246 016.5179 15.05203866402793
HORYU 2
1 38340U 12025D   19079.93722627  .00000166  00000-0  32356-4 0  9998
2 38340  98.3403 115.7830 0012491  54.8654 305.3723 14.75680821367923
STRAND 1
1 39090U 13009E   19078.51927726 +.00000037 +00000-0 +28092-4 0  9993
2 39090 098.4976 285.9561 0008809 193.0289 167.0670 14.35074327317317
SOMP
1 39134U 13015E   19079.61907267  .00001190  00000-0  64297-4 0  9997
2 39134  64.8635 312.2025 0022205 316.5056  43.4319 15.19910130326900
BEESAT 3
1 39135U 13015F   19079.84391410 +.00000690 +00000-0 +44285-4 0  9999
2 39135 064.8691 328.5362 0009954 298.3244 061.6877 15.17268895326227
BEESAT 2
1 39136U 13015G   19079.84772218 +.00000729 +00000-0 +46914-4 0  9993
2 39136 064.8709 332.0714 0011466 295.3936 064.6003 15.16712928326151
CUBEBUG 1
1 39153U 13018D   19080.21488366  .00000190  00000-0  31635-4 0  9992
2 39153  97.9743 178.8725 0018178 126.2629 234.0266 14.80527380318589
ZACUBE
1 39417U 13066B   19079.91869694 +.00000189 +00000-0 +30288-4 0  9991
2 39417 097.5684 098.4395 0058118 329.6420 030.1431 14.81070960287759
TRITON 1
1 39427U 13066M   19079.94892841  .00000202  00000-0  39788-4 0  9995
2 39427  97.6680  62.9182 0115417  92.7871 268.6552 14.67793863285175
GOMX 1
1 39430U 13066Q   19080.27554441  .00000145  00000-0  35195-4 0  9992
2 39430  97.7348  42.7762 0151276 175.6529 184.6034 14.59208581283567
HUMSAT D
1 39433U 13066T   19079.88877990 +.00000572 +00000-0 +61293-4 0  9999
2 39433 097.5658 131.0104 0029567 238.6061 121.2265 14.92108697288508
CUBEBUG 2
1 39440U 13066AA  19079.78070284  .00000228  00000-0  38586-4 0  9994
2 39440  97.6016  83.5321 0080791  18.1607 342.2460 14.75808878286712
FUNCUBE 1
1 39444U 13066AE  19079.49586323  .00000277  00000-0  40534-4 0  9992
2 39444  97.5673  99.8942 0057135 325.2587  34.4901 14.81880082286576
UWE-3
1 39446U 13066AG  19079.73570954 +.00000212 +00000-0 +34837-4 0  9992
2 39446 097.5838 090.3927 0069886 354.9173 005.1321 14.78343866285385
SPROUT
1 39770U 14029E   19080.21898297  .00000808  00000-0  95828-4 0  9998
2 39770  97.8790 184.1435 0009802  28.2848 331.8905 14.87220395261532
UNISAT 6
1 40012U 14033C   19079.86282472 +.00000164 +00000-0 +31884-4 0  9992
2 40012 097.7713 310.2712 0059141 028.8747 331.5713 14.73939172255455
DUCHIFAT 1
1 40021U 14033M   19079.72575452  .00000490  00000-0  55981-4 0  9996
2 40021  97.9225   4.0376 0012847 353.6518   6.4535 14.90550304258140
QB50P1
1 40025U 14033R   19079.71370765  .00000302  00000-0  38229-4 0  9997
2 40025  97.9066 359.5447 0012540   2.5061 357.6216 14.88885738257939
CHUBUSAT 1
1 40300U 14070C   19080.43964414  .00000926  00000-0  43440-4 0  9998
2 40300  97.3344 156.8533 0020652  13.1689  45.3813 15.21958023242449
NUDT-PHONESAT
1 40900U 15049B   19080.47531477  .00002440  00000-0  10842-3 0  9996
2 40900  97.4401  90.7002 0014309 131.7477  32.4432 15.22399802194086
ZDPS 2A
1 40901U 15049C   19080.27831465  .00001159  00000-0  60962-4 0  9990
2 40901  97.4614  87.4016 0014532 147.2112 345.5258 15.17560718193675
ZDPS 2B
1 40902U 15049D   19080.49475700  .00000948  00000-0  50784-4 0  9997
2 40902  97.4540  85.2316 0014705 144.4900  19.5430 15.17333532193682
XW-2A
1 40903U 15049E   19080.33210700  .00002381  00000-0  58659-4 0  9990
2 40903  97.3507 122.5485 0015694 106.7629 318.5946 15.41490073196480
KAITUO 1A
1 40904U 15049F   19080.31571971  .00000602  00000-0  35421-4 0  9995
2 40904  97.4663  83.8643 0015339 151.3682 265.1462 15.15276087193464
OBJECT G
1 40905U 15049G   19080.48259104  .00000692  00000-0  41390-4 0  9996
2 40905  97.4688  81.6922 0016531 145.6100   5.5657 15.14210744193373
XW-2C
1 40906U 15049H   19080.40935808  .00000938  00000-0  52843-4 0  9999
2 40906  97.4671  83.9787 0015859 142.8715 324.5243 15.15550577193471
XW-2D
1 40907U 15049J   19080.33292391  .00000987  00000-0  55140-4 0  9992
2 40907  97.4647  83.5814 0015232 140.2782 333.6678 15.15728776193474
LILACSAT 2
1 40908U 15049K   19080.42996568  .00000321  00000-0  21360-4 0  9999
2 40908  97.4776  82.6615 0016848 145.6360 351.1881 15.13725215193308
XW-2F
1 40910U 15049M   19080.37610292  .00001012  00000-0  54317-4 0  9999
2 40910  97.4621  85.4413 0016215 135.4470 331.9727 15.17094280193472
XW-2B
1 40911U 15049N   19080.36032075  .00000628  00000-0  36395-4 0  9994
2 40911  97.4678  84.2356 0015318 141.3701 325.7380 15.15659477193372
KAITUO 1B
1 40912U 15049P   19080.41081515  .00001461  00000-0  72095-4 0  9997
2 40912  97.4515  88.9289 0016612 119.9855 349.8309 15.19382341193755
TIANWANG 1C (TW-1C)
1 40926U 15051B   19080.32428672  .00012431  00000-0  19521-3 0  9997
2 40926  97.1496 126.6759 0008089 356.7530 133.8480 15.53756008196271
